Location: Unspecified
(41.1850°N, 73.2650°W)
Time: 02:16:39
(UTC+00:00)

Spot 4 Rocket - Pass Details

Date: 14 December 2025
Orbit: 769 x 773 km, 98.8° (Epoch: 14 January)

Event Time Altitude Azimuth Distance (km) Brightness Sun altitude
Rises 23:09:59 0° 158° (SSE) 3,229 7.2 -19.0°
Reaches altitude 10° 23:12:17 10° 157° (SSE) 2,307 6.4 -19.5°
Maximum altitude 23:17:21 72° 74° (ENE) 814 3.9 -20.4°
Drops below altitude 10° 23:22:27 10° 351° (N) 2,326 6.5 -21.3°
Sets 23:24:46 0° 349° (N) 3,258 7.2 -21.7°
